Regional Weather Roundup
Issued by NWS Charleston, SC

Current Version | Previous Version | Graphics & Text | Print | Product List | Glossary On
Versions: 1 2 3 4 5 6 7 8 9 10 11 12 13 14 15 16 17 18 19 20 21 22 23 24 25 26 27 28 29 30 31 32 33 34 35 36 37 38 39 40 41 42 43 44 45 46 47 48 49 50
000
ASUS42 KCHS 240512
RWRCHS

REGIONAL WEATHER ROUNDUP
NATIONAL WEATHER SERVICE CHARLESTON SC
100 AM EDT MON APR 24 2017

NOTE: "FAIR" INDICATES FEW OR NO CLOUDS BELOW 12,000 FEET WITH NO
SIGNIFICANT WEATHER AND/OR OBSTRUCTIONS TO VISIBILITY.

NOT ALL STATIONS ARE QUALITY CONTROLLED. USE DATA WITH CAUTION...
ESPECIALLY DEWPOINT OBSERVATIONS.

SCZ027-030-031-034>040-042>050-240600-
...SOUTHEAST SOUTH CAROLINA...

CITY           SKY/WX    TMP DP  RH WIND       PRES   REMARKS
N CHARLESTON   PTCLDY    73  68  84 SE13      29.76F
WATERFRONT PRK   N/A     74  71  90 S14       29.75F
JOHNS ISLAND   FAIR      73  70  88 SE12G17   29.76F
PINOPOLIS        N/A     70  70 100 SE5       29.68F
MONCKS CORNER  CLOUDY    70  68  94 SE5       29.77F
SUMMERVILLE    CLOUDY    73  68  83 SE7       29.76F
BEAUFORT MCAS  CLOUDY    75  71  87 S12G18    29.75S
BEAUFORT ARPT  CLOUDY    73  70  88 S14G28    29.75F
HILTON HEAD IS CLOUDY    75  72  88 S12G18    29.77F
WALTERBORO     LGT RAIN  72  68  88 SE15      29.74S
ALLENDALE      CLOUDY    68  66  94 SE5       29.74S

...SOUTHERN MIDLANDS AND PEE DEE...

CITY           SKY/WX    TMP DP  RH WIND       PRES   REMARKS
GEORGETOWN     CLOUDY    70  70 100 E7        29.81F
KINGSTREE      CLOUDY    64  63  94 E6        29.79F
ORANGEBURG     TSTM      65  64  97 SE8G18    29.78R FOG
BARNWELL       DRIZZLE   68  66  94 CALM      29.76R
AIKEN          CLOUDY    55  55 100 N10       29.81S
MANNING        CLOUDY    68  64  88 SE7G18    29.77S
COLUMBIA       RAIN      61  61 100 VRB5      29.78R
SUMTER         LGT RAIN  62  61  96 E8        29.78R
FLORENCE       CLOUDY    60  60 100 E12G20    29.83F
MYRTLE BEACH   CLOUDY    66  65  96 NE12      29.83F
N MYRTLE BEACH CLOUDY    65  64  97 NE8       29.83F

$$

GAZ063-065-086>088-099>101-113>116-118-119-134>141-150-240600-
...SOUTHEAST GEORGIA...

CITY           SKY/WX    TMP DP  RH WIND       PRES   REMARKS
SAVANNAH ARPT  CLOUDY    72  67  84 S12       29.74F
HUNTER AAF     CLOUDY    73  71  96 S9        29.72F
FORT STEWART   MOCLDY    70  66  87 S5        29.72F
STATESBORO     LGT RAIN  69  69 100 CALM      29.74S
SYLVANIA       RAIN      70  68  94 CALM      29.74F
CLAXTON        MOCLDY   N/A N/A N/A SE3       29.74F

...CSRA...CENTRAL AND FAR SOUTHEAST GEORGIA...

CITY           SKY/WX    TMP DP  RH WIND       PRES   REMARKS
THOMSON        CLOUDY    58  56  94 E12       29.83F
AUGUSTA-BUSH   CLOUDY    64  61  90 N12       29.76F
AUGUSTA-DANIEL CLOUDY    61  57  87 N9        29.78S
SWAINSBORO     CLOUDY    68  68 100 CALM      29.75F
VIDALIA        CLOUDY    68  64  88 NW3       29.75F
EASTMAN        CLOUDY    63  63 100 W6        29.80F
HAZLEHURST     CLOUDY    67  67 100 NW3       29.75F
ALMA           PTCLDY    70  66  87 CALM      29.75F
WAYCROSS       MOCLDY    73  64  71 W6        29.75F
JESUP          CLOUDY    72  66  83 S5        29.75F
BAXLEY         CLOUDY    70  70 100 CALM      29.74F
BRUNSWICK      PTCLDY    70  70 100 S8        29.77S
SAINT SIMONS   PTCLDY    72  65  78 SE13G21   29.76F

$$

SCZ027-028-034-036>038-045-046-048>050-GAZ119-141-240600-
...LAKE AND SUPPLEMENTAL COASTAL OBSERVATIONS...

STATION/POSITION TIME  TEMP    WIND        PRES    WAVE   SWELL
                       AIR SEA DIR/SP/G            HT/PER HT/PER/DIR
                 (UTC) (F)     (DEG/KT/KT) (MB)    (FT/S) (FT/S/D)
WINYAH BAY       0345   72     100/  6     1010.0
LAKE MURRAY      0420   58     350/  3/  9 1008.8S
ACE BASIN NERRS  0345   74     140/  3     1008.0
FORT PULASKI     0448   73 75  180/  8/ 13 1007.8F
SAPELO ISLAND    0400   73     180/ 17     1008.0

$$

ANZ835-935-AMZ111-154-330-350-352-354-370-450-454-472-240600-
...C-MAN AND BUOY OBSERVATIONS...

STATION/POSITION TIME  TEMP    WIND        PRES    WAVE   SWELL
                       AIR SEA DIR/SP/G            HT/PER HT/PER/DIR
                 (UTC) (F)     (DEG/KT/KT) (MB)    (FT/S) (FT/S/D)
BUOY 41004       0450   75 74  160/ 17/ 23 1008.5F   5/ 6   2/ 80/11
BUOY 41008       0450   73 72  190/ 12/ 17 1007.8S   3/ 5   2/ 70/11
FOLLY BEACH CMAN 0400   74     150/ 15/ 16 1009.5F
CAPERS NEARSHORE 0408   74 73  150/ 10/ 16 1009.1F
FRIPP NEARSHORE  0408   74 74  160/ 14/ 17 1008.0F


STATION/POSITION TIME  TEMP    WIND        PRES    WAVE   SWELL
                       AIR SEA DIR/SP/G            HT/PER HT/PER/DIR
                 (UTC) (F)     (DEG/KT/KT) (MB)    (FT/S) (FT/S/D)
5E ST. MARYS GA  0430      73                N/A     4/ 5   2/100/13
FRYING PAN BUOY  0450   71 74  140/ 14/ 21 1010.5F   6/ 6   2/100/11
BUOY 41025       0450   72 78   50/  4/ 10 1012.8F   7/10   7/ 60/10
CAPE LOOKOUT NC  0400   65      30/ 19/ 21 1012.5F
BUOY 41002       0450   73 75  140/ 19/ 23 1013.2F   5/ 6   2/ 10/11
BUOY 41010       0450   74 79  120/ 21/ 27 1007.8F   8/ 7   3/100/11
ST AUGUSTINE FL  0500   73 76  180/ 15/ 16 1009.0F


$$




USA.gov is the U.S. government's official web portal to all federal, state and local government web resources and services.